Millville, NJ

8:01 AM EST on December 09, 2019 (GMT -0500)
Millville Municipal

Weather History for KMIV - October, 2019

Change the Weather History Date:

Friday, October 25, 2019

  Actual Average Record
Temperature  
Mean Temperature 54 °F -  
Max Temperature 68 °F 63 °F 78 °F (2001)
Min Temperature 42 °F 44 °F 27 °F (1962)
Degree Days  
Heating Degree Days 11    
Growing Degree Days 4 (Base 50)    
Moisture  
Dew Point 48 °F    
Average Humidity 82    
Maximum Humidity 97    
Minimum Humidity 56    
Precipitation  
Precipitation 0.00 in - - ()
Sea Level Pressure  
Sea Level Pressure 30.26 in    
Wind  
Wind Speed 1 mph ()    
Max Wind Speed 5 mph    
Max Gust Speed -    
Visibility 9.8 miles    
Events      
Averages and records for this station are not official NWS values.
T = Trace of Precipitation, MM = Missing Value Source: Averaged Metar Reports

Daily Weather History Graph

Daily Weather History Graph

Search for Another Location

Airport or City:

Astronomy

Oct. 25, 2019 Rise Set
Actual Time 7:20 AM EDT 6:07 PM EDT
Civil Twilight 6:52 AM EDT 6:35 PM EDT
Nautical Twilight 6:21 AM EDT 7:06 PM EDT
Astronomical Twilight 5:50 AM EDT 7:37 PM EDT
Moon 4:01 AM EDT (10/25) 5:07 PM EDT (10/25)
Length of Visible Light 11h 42m
Length of Day
10h 47m
Waning Crescent, 9% of the Moon is Illuminated
Oct 25
Waning Crescent
Oct 27
New
Nov 4
First Quarter
Nov 12
Full
Nov 19
Last Quarter

Hourly Weather History & Observations

Time (EDT) Temp. Dew Point Humidity Pressure Visibility Wind Dir Wind Speed Gust Speed Precip Events Conditions
12:54 AM 44.1 °F 42.1 °F 93% 30.31 in 10.0 mi Calm Calm - N/A   Clear
1:54 AM 42.1 °F 39.0 °F 89% 30.30 in 10.0 mi Calm Calm - N/A   Clear
2:54 AM 42.1 °F 39.0 °F 89% 30.30 in 10.0 mi Calm Calm - N/A   Clear
3:54 AM 42.1 °F 39.9 °F 92% 30.30 in 10.0 mi Calm Calm - N/A   Clear
4:54 AM 42.1 °F 39.9 °F 92% 30.30 in 10.0 mi Calm Calm - N/A   Clear
5:54 AM 43.0 °F 42.1 °F 97% 30.31 in 10.0 mi Calm Calm - N/A   Clear
6:54 AM 42.1 °F 39.9 °F 92% 30.31 in 10.0 mi Calm Calm - N/A   Clear
7:54 AM 44.1 °F 42.1 °F 93% 30.32 in 10.0 mi Calm Calm - N/A   Clear
8:54 AM 48.0 °F 46.0 °F 93% 30.32 in 9.0 mi ESE 3.5 mph - N/A   Clear
9:54 AM 52.0 °F 50.0 °F 93% 30.32 in 7.0 mi Calm Calm - N/A   Clear
10:54 AM 57.0 °F 53.1 °F 87% 30.32 in 10.0 mi Calm Calm - N/A   Clear
11:54 AM 64.0 °F 55.0 °F 73% 30.29 in 10.0 mi Calm Calm - N/A   Clear
12:54 PM 66.0 °F 53.1 °F 63% 30.26 in 10.0 mi Variable 4.6 mph - N/A   Partly Cloudy
1:54 PM 66.0 °F 51.1 °F 59% 30.23 in 10.0 mi Variable 4.6 mph - N/A   Clear
2:54 PM 66.0 °F 51.1 °F 59% 30.22 in 10.0 mi South 4.6 mph - N/A   Mostly Cloudy
3:54 PM 66.0 °F 50.0 °F 56% 30.19 in 10.0 mi South 4.6 mph - N/A   Mostly Cloudy
4:54 PM 64.9 °F 51.1 °F 61% 30.19 in 10.0 mi SSE 3.5 mph - N/A   Scattered Clouds
5:54 PM 63.0 °F 52.0 °F 67% 30.19 in 10.0 mi Calm Calm - N/A   Scattered Clouds
6:54 PM 57.9 °F 52.0 °F 81% 30.18 in 10.0 mi Calm Calm - N/A   Partly Cloudy
7:54 PM 55.9 °F 54.0 °F 93% 30.19 in 10.0 mi Calm Calm - N/A   Clear
8:54 PM 57.0 °F 53.1 °F 87% 30.19 in 10.0 mi Calm Calm - N/A   Clear
9:54 PM 55.9 °F 53.1 °F 90% 30.20 in 10.0 mi Calm Calm - N/A   Clear
10:54 PM 55.9 °F 53.1 °F 90% 30.21 in 10.0 mi West 3.5 mph - N/A   Clear
11:54 PM 55.9 °F 53.1 °F 90% 30.20 in 10.0 mi West 3.5 mph - N/A   Mostly Cloudy